This demonstration page uses our WeatherBlox Daily Observations layout. Learn more.

Hourly Observations for October 9, 2019

Temp ( °F °C ) Dew Point ( °F °C ) Humidity (%) Winds ( mph kmh ) Pressure ( in mb ) Visibility ( mi km ) Precip ( " mm )
12:54 am 00:54 Clear 58 14.4 49 9.4 72 72 S 10 17 29.85 1011 10 16.09344 0 0
1:54 am 01:54 Clear 58 14.4 49 9.4 72 72 S 16 26 29.83 1010 10 16.09344 0 0
2:54 am 02:54 Clear 57 13.9 48 8.9 72 72 SSE 14 22 29.83 1010 10 16.09344 0 0
3:54 am 03:54 Clear 57 13.9 47 8.3 69 69 S 15 24 29.83 1010 10 16.09344 0 0
4:54 am 04:54 Clear 57 13.9 46 7.8 67 67 S 10 17 29.8 1009 10 16.09344 0 0
5:54 am 05:54 Mostly Cloudy 58 14.4 46 7.8 65 65 SSE 14 22 29.8 1009 10 16.09344 0 0
6:54 am 06:54 Cloudy 59 15 46 7.8 62 62 SSE 15 24 29.8 1009 10 16.09344 0 0
7:54 am 07:54 Cloudy 59 15 47 8.3 64 64 SSE 21 33 29.8 1009 10 16.09344 0 0
8:54 am 08:54 Cloudy with Light Rain 58 14.4 49 9.4 72 72 S 15 24 29.83 1010 8 12.874752 0.001 0.001
9:01 am 09:01 Cloudy with Nearby Thunderstorms 57 13.9 50 10 78 78 SSW 10 17 29.85 1011 8 12.874752 0.01 0.254
9:16 am 09:16 Cloudy 56 13.3 50 10 81 81 S 8 13 29.85 1011 10 16.09344 0.02 0.508
9:54 am 09:54 Mostly Sunny 58 14.4 52 11.1 81 81 S 3 6 29.83 1010 10 16.09344 0.02 0.508
10:54 am 10:54 Mostly Cloudy 62 16.7 55 12.8 78 78 SSE 9 15 29.83 1010 10 16.09344 0 0
10:56 am 10:56 Mostly Cloudy 63 17.2 55 12.8 76 76 SE 10 17 29.83 1010 10 16.09344 0 0
11:54 am 11:54 Sunny 62 16.7 53 11.7 73 73 SSE 20 31 29.83 1010 10 16.09344 0 0
12:54 pm 12:54 Sunny 64 17.8 53 11.7 68 68 S 16 26 29.8 1009 10 16.09344 0 0
1:29 pm 13:29 Mostly Cloudy 65 18.3 54 12.2 68 68 S 22 35 29.77 1008 10 16.09344 0 0
1:37 pm 13:37 Mostly Cloudy 65 18.3 54 12.2 68 68 S 17 28 29.77 1008 10 16.09344 0 0
1:54 pm 13:54 Partly Cloudy 65 18.3 54 12.2 68 68 SSE 21 33 29.77 1008 10 16.09344 0 0
2:10 pm 14:10 Mostly Cloudy 65 18.3 55 12.8 70 70 SSE 17 28 29.74 1007 10 16.09344 0 0
2:54 pm 14:54 Mostly Cloudy 70 21.1 57 13.9 64 64 SE 13 20 29.74 1007 10 16.09344 0 0
3:54 pm 15:54 Cloudy 67 19.4 56 13.3 68 68 SSE 16 26 29.71 1006 10 16.09344 0 0
4:31 pm 16:31 Cloudy 68 20 56 13.3 65 65 SSE 18 30 29.71 1006 10 16.09344 0 0
4:54 pm 16:54 Cloudy 67 19.4 56 13.3 68 68 S 17 28 29.71 1006 10 16.09344 0 0
5:35 pm 17:35 Cloudy 66 18.9 56 13.3 70 70 SSE 14 22 29.71 1006 10 16.09344 0 0
5:54 pm 17:54 Cloudy 66 18.9 56 13.3 70 70 SE 14 22 29.71 1006 10 16.09344 0 0
6:54 pm 18:54 Cloudy 65 18.3 56 13.3 73 73 SSE 15 24 29.74 1007 10 16.09344 0 0
7:54 pm 19:54 Cloudy with Mist and Fog 61 16.1 58 14.4 90 90 SSE 12 19 29.77 1008 6 9.656064 0.001 0.001
8:54 pm 20:54 Cloudy 61 16.1 58 14.4 90 90 ESE 12 19 29.8 1009 10 16.09344 0.01 0.254
9:54 pm 21:54 Cloudy 61 16.1 57 13.9 87 87 ESE 9 15 29.8 1009 10 16.09344 0 0
10:54 pm 22:54 Cloudy 61 16.1 57 13.9 87 87 undefined N/A 29.8 1009 10 16.09344 0 0
11:54 pm 23:54 Cloudy 61 16.1 55 12.8 81 81 undefined N/A 29.8 1009 10 16.09344 0 0

Powered by AerisWeather